User: anonymous   Login
Location: Columbia
(38.9520°N, 92.3340°W)
Time: 13:28:53
(UTC-06:00)
Language:

Cosmos 158 Rocket - Orbit

View from above orbital plane
View from above orbital plane
View from above satellite
View from above satellite

Ground track
Ground track

The orbit data is extracted from the following two-line orbital elements,

1 02802U 67045B   14330.50205281  .00000428  00000-0  13160-3 0  6218
2 02802 074.0127 104.4589 0066811 022.3919 338.0129 14.43297191494255
Epoch (UTC): 26 November 2014 12:02:57
Eccentricity: 0.0066811
inclination: 74.0127°
perigee height: 700 km
apogee height: 795 km
right ascension of ascending node: 104.4589°
argument of perigee: 22.3919°
revolutions per day: 14.43297191
mean anomaly at epoch: 338.0129°
orbit number at epoch: 49425

The dashed part of the orbit path shows where the satellite is in the earth's shadow,  

DLR